Regional Weather Roundup
Issued by NWS Northern Indiana

Home | Current Version | Previous Version | Text Only | Print | Product List | Glossary Off
Versions: 1 2 3 4 5 6 7 8 9 10 11 12 13 14 15 16 17 18 19 20 21 22 23 24 25 26 27 28 29 30 31 32 33 34 35 36 37 38 39 40 41 42 43 44 45 46 47 48 49 50

000
ASUS43 KIWX 141500
RWRIWX

KIWX WEATHER ROUNDUP
NATIONAL WEATHER SERVICE NORTHERN INDIANA
1000 AM EST THU DEC 14 2017

NOTE: "FAIR" INDICATES FEW OR NO CLOUDS BELOW 12,000 FEET WITH NO
SIGNIFICANT WEATHER AND/OR OBSTRUCTIONS TO VISIBILITY.

* THESE STATIONS ARE NOT UNDER NWS QUALITY CONTROL. THEY ALSO MAY NOT
  REPORT WEATHER SUCH AS PRECIPITATION OR FOG.

INZ001>027-141600-
NORTHERN INDIANA

CITY           SKY/WX    TMP DP  RH WIND       PRES   REMARKS
GARY*          PTSUNNY   23  14  68 W9        30.06R WCI  13
VALPARAISO     LGT SNOW  20  13  74 SE3       30.04R
SOUTH BEND     CLOUDY    17  11  77 E5        30.03R WCI  10
GOSHEN         CLOUDY    11  10  96 CALM      30.02R
MONTICELLO*    CLOUDY    20  11  68 NE5       30.05R WCI  14
FORT WAYNE     CLOUDY    18  10  71 N6        30.03R WCI  10
PERU/GRISSOM   CLOUDY    18  14  86 NE5       30.03R WCI  11

$$
INZ028>050-141600-
CENTRAL INDIANA

CITY           SKY/WX    TMP DP  RH WIND       PRES   REMARKS
LAFAYETTE      MOSUNNY   25  12  58 NE7       30.06R WCI  17
KOKOMO*        MOSUNNY   21  16  81 N8        30.04R WCI  11
MUNCIE*        CLOUDY    22  15  75 N12       30.01R WCI  10
INDIANAPOLIS   PTSUNNY   26  13  57 NE9       30.03R WCI  17

$$
MIZ043>046-050>051-056>058-064>065-071>073-077>080-141600-
SOUTHWEST LOWER MICHIGAN

CITY           SKY/WX    TMP DP  RH WIND       PRES   REMARKS
BATTLE CREEK   MOSUNNY    8   7  95 SW3       30.02R
BENTON HARBOR  CLOUDY    18  10  71 E3        30.03R
COLDWATER*     MOSUNNY   10   7  89 CALM      30.01R
HILLSDALE*     CLOUDY    10   3  72 N7        29.98R WCI   0
HOLLAND        CLOUDY    13   9  84 S5        30.04R WCI   5
GRAND RAPIDS   FLURRIES  11   8  88 SW5       30.02R WCI   3
KALAMAZOO      PTSUNNY   13  11  92 CALM      30.02R
STURGIS*       CLOUDY    10   7  90 CALM      30.01R
THREE RIVERS*  CLOUDY     9   6  87 CALM      30.03R FOG

$$
OHZ001>008-015>018-024>025-141600-
NORTHWEST OHIO

CITY           SKY/WX    TMP DP  RH WIND       PRES   REMARKS
DEFIANCE       CLOUDY    14   6  70 NW6       30.04R WCI   5
FINDLAY        CLOUDY    18  10  71 NW10      30.00R WCI   6
TOLEDO EXPRESS CLOUDY    14   8  77 NW7       30.02R WCI   4
TOLEDO METCALF SUNNY     16   9  74 NW7       30.02R WCI   6
LIMA           CLOUDY    18  13  80 N7        30.00R WCI   9

$$
AND FOR LAKE MICHIGAN COASTAL AND OPEN LAKE BUOY OBSERVATIONS

STATION/POSITION TEMP    WIND        PRES    VSBY  WAVE
                 AIR SEA DIR/SP/G                  HT/PER
                 (F)     (DEG/KT/KT) (MB)    (MI)  (FT/S)
CALUMET HARBOR    19     270/  5/  6 1016.8R
MICHIGAN CITY     20     160/  7/  8   N/A
BURNS HARBOR      23     170/ 11/ 16 1017.3R
SAINT JOSEPH      17      CALM  /  4 1017.3

$$
&&



USA.gov is the U.S. government's official web portal to all federal, state and local government web resources and services.